This is the latest recevied weather packets stored in our database for station/object CE3TDM-12. If no packets are shown the sender has not sent any weather packets the latest 10 day(s).
| Time | Temp. | Humidity | Pressure | Rain* | Wind** | Luminosity | Snow |
|---|---|---|---|---|---|---|---|
| 1777574461 | 22.78° C | 34% | 774.9 hPa | - | - | - | - |
| 1777574161 | 22.78° C | 34% | 774.9 hPa | - | - | - | - |
| 1777573860 | 23.89° C | 33% | 774.9 hPa | - | - | - | - |
| 1777571243 | 24.44° C | 33% | 774.9 hPa | - | - | - | - |
| 1777570939 | 23.89° C | 32% | 775 hPa | - | - | - | - |
| 1777570638 | 23.89° C | 33% | 775.1 hPa | - | - | - | - |
| 1777570333 | 23.89° C | 33% | 775 hPa | - | - | - | - |
| 1777570033 | 23.89° C | 33% | 775.2 hPa | - | - | - | - |
| 1777569730 | 23.89° C | 33% | 775.1 hPa | - | - | - | - |
| 1777569429 | 23.89° C | 32% | 775.2 hPa | - | - | - | - |
| 1777569129 | 23.89° C | 33% | 775.2 hPa | - | - | - | - |
| 1777568828 | 23.89° C | 33% | 775 hPa | - | - | - | - |
| 1777568528 | 23.33° C | 33% | 775 hPa | - | - | - | - |
| 1777568228 | 23.33° C | 33% | 774.9 hPa | - | - | - | - |
| 1777567927 | 22.78° C | 34% | 775 hPa | - | - | - | - |
| 1777565595 | 22.22° C | 35% | 774.8 hPa | - | - | - | - |
| 1777565295 | 22.78° C | 35% | 775.1 hPa | - | - | - | - |
| 1777562566 | 23.89° C | 34% | 775.1 hPa | - | - | - | - |
| 1777562264 | 23.89° C | 35% | 775.2 hPa | - | - | - | - |
| 1777561963 | 23.89° C | 34% | 775 hPa | - | - | - | - |
| 1777561663 | 23.89° C | 35% | 775.1 hPa | - | - | - | - |
| 1777561363 | 24.44° C | 34% | 775 hPa | - | - | - | - |
| 1777561061 | 25° C | 35% | 775 hPa | - | - | - | - |
| 1777560761 | 25.56° C | 34% | 774.9 hPa | - | - | - | - |
| 1777560461 | 26.11° C | 33% | 775 hPa | - | - | - | - |
* Rain since midnight (hover to see other rain measurements)
** Current wind speed in m/s (hover to see current wind gust speed)